Вернуться в каталог

SL-14 DEB

АктивенPO
NORAD 26021·DEBRIS·🇷🇺 Russia

Запущен Sep 28, 1991 с Plesetsk Cosmodrome

Loading…

Ближайшие Пролёты (ближайшие 24 часа)

TLE

СвежийSource: Space-Track

Эпоха: Sep 13, 2026, 17:41 UTC

1 26021U 91068AG  26256.73730951  .00000676  00000-0  21281-2 0  9996
2 26021  81.7783 339.1261 0221653 239.4626 248.0937 12.95071894638010

Отслеживайте SL-14 DEB в реальном времени с AllMySat

Download on the App Store